Weather in San José de Mayo

Uruguay     34°20′30″S   56°42′03″W
temp.,
°C
wind,
m/s
gust,
m/s
humid.,
%
clouds,
%
prec.,
mm/h
press.,
hPa
HPBL,
m
18 april, sun
sun1800:00+15ene3490100 0.0 101851
03:00+14ne35924 0.0 101872
06:00+13nne34940 0.0 101967
09:00+17ne35840 0.0 1020182
12:00+22ne45640 0.0 1020698
15:00+24ne33584 0.0 10191131
18:00+20ene337930 0.0 101829
21:00+17ne47887 0.0 1019121
19 april, mon
mon1900:00+15ne411945 0.0 1020233
03:00+14ne3119681 0.0 1020243
06:00+13ne310951 0.0 1020200
09:00+16ne49855 0.0 1022286
12:00+21ne57641 0.0 1021821
15:00+23ene57594 0.0 10201172
18:00+19ene38800 0.0 1019155
21:00+15ene412890 0.0 1020238
20 april, tue
tue2000:00+14ene413950 0.0 1021328
03:00+13ene313960 0.0 1021304
06:00+13ene3119817 0.0 1021267
09:00+17ene513918 0.0 1022465
12:00+22ne796947 0.0 10221202
15:00+23ne58627 0.1 10201451
18:00+20e410760 0.0 1020270
21:00+17ene715800 0.0 1021469
21 april, wed
wed2100:00+16ene615890 0.0 1021598
03:00+15ene616890 0.0 1020521
06:00+15ene617935 0.0 1020606
09:00+18ene715831 0.0 1021812
12:00+22ne812630 0.0 10201159
15:00+23ene711630 0.0 10181286
18:00+20ene814730 0.0 1017783
21:00+18ene615800 0.0 1019701
22 april, thu
thu2200:00+16ene616825 0.0 1019550
03:00+15ene5139026 0.0 1019477
06:00+14ene5149699 0.0 1018431
09:00+16ne5138697 0.0 1020512
12:00+21ne676577 0.0 10191032
15:00+23ene5656100 0.0 10161400
18:00+19e3374100 0.0 101632
21:00+17ene4875100 0.0 1017147